Regional Weather Roundup
Issued by NWS Upton, NY

Current Version | Previous Version | Graphics & Text | Print | Product List | Glossary Off
Versions: 1 2 3 4 5 6 7 8 9 10 11 12 13 14 15 16 17 18 19 20 21 22 23 24 25 26 27 28 29 30 31 32 33 34 35 36 37 38 39 40 41 42 43 44 45 46 47 48 49 50

000
ASUS41 KOKX 161605
RWROKX

REGIONAL WEATHER ROUNDUP
NATIONAL WEATHER SERVICE NEW YORK NY
1200 PM EDT TUE SEP 16 2014

NOTE: "FAIR" INDICATES FEW OR NO CLOUDS BELOW 12,000 FEET WITH NO
SIGNIFICANT WEATHER AND/OR OBSTRUCTIONS TO VISIBILITY.

NYZ071-072-176-178-NJZ106-104-161700-
NEW YORK CITY METRO AREA


CITY           SKY/WX    TMP DP  RH WIND       PRES   REMARKS
CENTRAL PARK   CLOUDY    61  58  90 CALM      30.03F FOG
LAGUARDIA APRT PTSUNNY   61  57  87 SE5       30.00F
KENNEDY INTL   LGT RAIN  61  58  90 N7        30.01F
NEWARK/LIBERTY PTSUNNY   63  58  83 NE6       30.01S
BRNX BOT. GARD   N/A     61  59  94 S2        30.00S
TETERBORO      PTSUNNY   64  58  80 VRB3      30.00S FOG
$$

NYZ177-179-078>081-161700-
LONG ISLAND NEW YORK

CITY           SKY/WX    TMP DP  RH WIND       PRES   REMARKS
FARMINGDALE    LGT RAIN  61  57  87 N8        30.01S FOG
ISLIP          LGT RAIN  61  58  90 N8        30.00S FOG
SHIRLEY        RAIN      62  59  90 N7        30.01F FOG
WESTHAMPTON    LGT RAIN  61  58  90 NW5       30.02S FOG
MONTAUK POINT    N/A     68  54  60 VRB3      30.01F
$$

NYZ052-065-067-161700-
HUDSON VALLEY

CITY           SKY/WX    TMP DP  RH WIND       PRES   REMARKS
WHITE PLAINS   PTSUNNY   61  56  83 CALM      30.00F
NEWBURGH       MOSUNNY   61  57  88 CALM      30.02F
MONTGOMERY     MOSUNNY   64  55  72 E3        30.00F
POUGHKEEPSIE   PTSUNNY   61  55  81 CALM      30.00F
ALBANY         PTSUNNY   60  54  80 CALM      30.01F
$$

NJZ001-105-106-008-010-013-015-019>022-104-161700-
NEW JERSEY

CITY           SKY/WX    TMP DP  RH WIND       PRES   REMARKS
NEWARK/LIBERTY PTSUNNY   63  58  83 NE6       30.01S
TETERBORO      PTSUNNY   64  58  80 VRB3      30.00S FOG
CALDWELL       MOSUNNY   64  57  78 E5        30.01F
MORRISTOWN     PTSUNNY   66  59  77 CALM      30.01F
SOMERVILLE     MOSUNNY   67  59  75 CALM      29.99F
LINDEN         PTSUNNY   67  62  83 NE6       30.02S
SUSSEX         PTSUNNY   67  54  63 VRB7      30.01F
ANDOVER          N/A     66  55  67 N3        30.01F
TRENTON        CLOUDY    66  57  72 N7        29.99F
MILLVILLE      MOSUNNY   73  59  61 N9        29.99S
ATLANTIC CITY  MOSUNNY   72  61  68 N15       29.98F
WRIGHTSTOWN    CLOUDY    65  60  83 N13       29.97F
TOMS RIVER       N/A    N/A N/A N/A NW5       29.99S
BELMAR         CLOUDY    61  55  82 N10       29.99F
$$

PAZ047>061-062-071-161700-
EASTERN PENNSYLVANIA

CITY           SKY/WX    TMP DP  RH WIND       PRES   REMARKS
PHILADELPHIA   MOSUNNY   72  56  57 N10       30.00F
ALLENTOWN      PTSUNNY   68  53  58 N8        30.01F
SCRANTON       PTSUNNY   63  51  65 NW7       30.04S
$$

CTZ002-004>006-009-010-012-RIZ004-006-007-MAZ004-011-015-161700-
SOUTHERN NEW ENGLAND
 IN CT

CITY           SKY/WX    TMP DP  RH WIND       PRES   REMARKS
BRADLEY INTL   CLOUDY    59  54  83 CALM      30.00F
HARTFORD       CLOUDY    57  54  89 S3        29.99F
DANBURY        PTSUNNY   62  56  80 S6        30.01F
WTRBRY/OXFORD  PTSUNNY   57  52  82 CALM      30.02F
BRIDGEPORT     CLOUDY    62  58  86 NW9       30.00F
MERIDEN        CLOUDY    58  55  90 CALM      30.00F
NEW HAVEN      PTSUNNY   62  57  83 CALM      30.00F
CHESTER        PTSUNNY   59  55  88 CALM      30.01F
GROTON         LGT RAIN  65  55  70 NW6       30.00S
WILLIMANTIC    LGT RAIN  57  55  93 CALM      30.01F

 IN RI

CITY           SKY/WX    TMP DP  RH WIND       PRES   REMARKS
PROVIDENCE     CLOUDY    66  49  54 SW8       30.01F
BLOCK ISLAND   CLOUDY    66  48  52 S5        30.01F
WESTERLY       CLOUDY    66  51  58 S3        30.01F

 IN MA

CITY           SKY/WX    TMP DP  RH WIND       PRES   REMARKS
BOSTON         NOT AVBL
WORCESTER      CLOUDY    56  51  84 SW7       30.01F
WESTFIELD      CLOUDY    58  53  84 CALM      30.00F
PROVINCETOWN   PTSUNNY   66  54  63 SW8       30.01S
NANTUCKET      MOSUNNY   66  49  54 SE8       30.01F
$$

ANZ330-335-338-340-345-350-353-355-161700-
COASTAL MARINE OBSERVATIONS


STATION/POSITION TIME  SKY/WX   TEMP    WIND        PRES    VSBY  WAVE
                                AIR SEA DIR/SP/G                  HT/PER
                 (UTC)          (F)     (DEG/KT/KT) (MB)    (MI)  (FT/S)
NY HARB ENTRANCE NOT AVBL
4S FIRE IS       NOT AVBL
23SW MTP         1600                                 N/A           2/13
HUDSON CANYON    1600            68 74  170/  2/  6 1015.2          2/ 8
EXECUTION ROCKS  1600            61 71  120/  2/  6   N/A
WESTERN LI SOUND 1600            61      80/  2/  4   N/A           0
CENTRAL LI SOUND 1500            62 71  340/ 10/ 12   N/A           0
EASTERN LI SOUND 1500            67 68  250/  4/  6   N/A
ROBBINS REEF     1500            60      50/  9/ 10 1014.8
$$


>>>>>>>>>>>>>>>>>>>>>>>>>>>> KEY <<<<<<<<<<<<<<<<<<<<<<<<<<<
>                                                          <
>     SKY/WX - SKY CONDITION/PRESENT WEATHER               <
>     TMP    - TEMPERATURE IN FAHRENHEIT                   <
>     DP     - DEWPOINT IN FAHRENHEIT                      <
>     RH     - RELATIVE HUMIDITY IN PERCENT                <
>     WIND   - DIRECTION AND SPEED IN MPH                  <
>     PRES   - MEAN SEA LEVEL PRESSURE IN INCHES OF HG     <
>     WCI    - WIND CHILL INDEX                            <
>     VSB    - VISIBILITY IN MILES                         <
>     HX     - HEAT INDEX                                  <
>     TC     - TEMPERATURE IN CELSIUS                      <
>     VRB    - VARIABLE WIND DIRECTION                     <
>                                                          <
>>>>>>>>>>>>>>>>>>>>>>>>>>>> KEY <<<<<<<<<<<<<<<<<<<<<<<<<<<





USA.gov is the U.S. government's official web portal to all federal, state and local government web resources and services.